This is the latest recevied weather packets stored in our database for station/object EA2RCU-15. If no packets are shown the sender has not sent any weather packets the latest 1 day(s).
| Time | Temp. | Humidity | Pressure | Rain* | Wind** | Luminosity | Snow |
|---|---|---|---|---|---|---|---|
| 1777974906 | 18.33° C | 36% | 997 hPa | 0 mm | 0 m/s | - | - |
| 1777974606 | 17.22° C | 36% | 997 hPa | 0 mm | 0 m/s | - | - |
| 1777974306 | 16.67° C | 38% | 997 hPa | 0 mm | 0 m/s | - | - |
| 1777974006 | 16.11° C | 39% | 997 hPa | 0 mm | 0.89 m/s, 42° | - | - |
| 1777973705 | 16.11° C | 42% | 997 hPa | 0 mm | 0 m/s | - | - |
| 1777973406 | 15.56° C | 42% | 997 hPa | 0 mm | 0 m/s | - | - |
| 1777973106 | 15.56° C | 44% | 997 hPa | 0 mm | 0 m/s | - | - |
| 1777972806 | 15.56° C | 44% | 997 hPa | 0 mm | 0 m/s | - | - |
| 1777972506 | 15.56° C | 41% | 997 hPa | 0 mm | 0 m/s | - | - |
| 1777972206 | 15.56° C | 42% | 997 hPa | 0 mm | 0 m/s | - | - |
| 1777971905 | 16.11° C | 44% | 997 hPa | 0 mm | 0 m/s | - | - |
| 1777971606 | 16.11° C | 48% | 997 hPa | 0 mm | 0 m/s | - | - |
| 1777971306 | 16.11° C | 56% | 997 hPa | 0 mm | 0 m/s | - | - |
| 1777971006 | 16.11° C | 59% | 997 hPa | 0 mm | 0 m/s | - | - |
| 1777970706 | 16.11° C | 62% | 997 hPa | 0 mm | 0 m/s | - | - |
| 1777970406 | 15.56° C | 63% | 997 hPa | 0 mm | 0 m/s | - | - |
| 1777970106 | 15.56° C | 65% | 997 hPa | 0 mm | 0 m/s | - | - |
| 1777969806 | 15.56° C | 65% | 997 hPa | 0 mm | 0 m/s | - | - |
| 1777969506 | 15° C | 66% | 1043 hPa | 0 mm | 0 m/s | - | - |
| 1777969206 | 15° C | 67% | 1043 hPa | 0 mm | 0 m/s | - | - |
| 1777968906 | 14.44° C | 68% | 1043 hPa | 0 mm | 0 m/s | - | - |
| 1777968606 | 14.44° C | 69% | 997 hPa | 0 mm | 0 m/s | - | - |
| 1777968305 | 14.44° C | 69% | 997 hPa | 0 mm | 0 m/s | - | - |
| 1777968006 | 14.44° C | 70% | 997 hPa | 0 mm | 0 m/s | - | - |
| 1777967706 | 14.44° C | 70% | 997 hPa | 0 mm | 0 m/s | - | - |
* Rain latest hour (hover to see other rain measurements)
** Current wind speed in m/s (hover to see current wind gust speed)